User: anonymous   Login
Location: Myra
(43.4160°N, 88.0960°W)
Time: 08:40:41
(UTC-05:00)
Language:

SL-8 R/B - Orbit

View from above orbital plane
View from above orbital plane
View from above satellite
View from above satellite

Ground track
Ground track

The orbit data is extracted from the following two-line orbital elements,

1 33066U 08031G   17146.53674002 -.00000082 +00000-0 +19045-4 0  9990
2 33066 048.4430 211.6678 0007342 020.4402 076.1639 14.69537578479571
Epoch (UTC): 26 May 2017 12:52:54
Eccentricity: 0.0007342
inclination: 48.4430°
perigee height: 657 km
apogee height: 668 km
right ascension of ascending node: 211.6678°
argument of perigee: 20.4402°
revolutions per day: 14.69537578
mean anomaly at epoch: 76.1639°
orbit number at epoch: 47957

The dashed part of the orbit path shows where the satellite is in the earth's shadow,  

DLR